Location: Boncourt
(49.6160°N, 3.9448°E)
Time: 00:27:03
(UTC+00:00)

Feng Yun 1-1 Rocket - Pass Details

Date: 09 February 2023
Orbit: 830 x 932 km, 99.1° (Epoch: 01 April)

Event Time Altitude Azimuth Distance (km) Brightness Sun altitude
Rises 18:13:20 0° 143° (SE) 3,421 7.1 -13.4°
Reaches altitude 10° 18:15:47 10° 138° (SE) 2,475 6.3 -13.8°
Maximum altitude 18:20:59 47° 66° (ENE) 1,110 4.4 -14.7°
Drops below altitude 10° 18:26:09 10° 354° (N) 2,454 6.6 -15.5°
Sets 18:28:34 0° 349° (N) 3,388 7.4 -15.9°
